Вернуться в каталог

STARLINK-33757

АктивенСвязьVLEO
NORAD 63720·PAYLOAD·🇺🇸 United States

Запущен Apr 28, 2025 с Vandenberg Space Force Base

Loading…

Ближайшие Пролёты (ближайшие 24 часа)

TLE

СвежийSource: CelesTrak SupGP

Эпоха: Sep 14, 2026, 20:55 UTC

1 63720C 25087Z   26257.87201389  .00028798  00000+0  85114-3 0  2572
2 63720  53.1602  59.7812 0001246  80.3326 111.0113 15.34365328    13

Отслеживайте STARLINK-33757 в реальном времени с AllMySat

Download on the App Store